Theta_e
288 288 288 287 287 288 287 286 286 286 286 286 286 286 285 285 285 284 284 283 283 282 282 282 282 281 281 281 281 281 280 280 280 279 279 279 278 278 278 277 277 277
287 287 287 287 286 287 287 286 286 286 286 286 286 286 285 285 285 284 284 283 283 282 282 281 281 281 281 281 280 280 279 279 279 279 278 278 278 278 278 277 277 277
287 286 286 286 287 286 286 285 285 285 285 285 285 285 285 285 284 284 284 283 282 282 281 281 281 281 281 280 280 280 279 279 278 278 278 278 277 277 277 277 277 277
287 287 287 287 287 286 285 284 284 285 285 284 285 285 285 285 284 283 283 283 282 281 281 281 281 280 280 280 280 279 279 279 279 278 278 277 277 277 277 277 277 276
287 287 287 287 286 286 284 284 284 284 284 285 284 284 284 283 283 283 283 282 282 281 281 280 280 280 280 279 279 279 278 278 278 278 277 277 277 277 277 276 276 276
287 287 287 287 286 285 284 284 284 284 284 283 284 284 283 283 283 283 282 282 281 281 280 280 280 280 279 279 278 278 278 277 277 277 277 276 276 276 276 276 276 275
286 286 286 286 285 285 284 284 284 284 284 284 283 282 283 283 282 282 282 282 281 281 280 280 279 279 279 278 278 277 277 277 276 277 276 276 276 275 276 275 275 275
286 286 286 285 285 284 284 284 283 283 283 282 282 282 283 282 282 282 282 281 281 280 280 280 279 279 278 278 278 277 276 276 276 276 276 275 275 275 275 275 275 274
286 285 285 284 284 284 284 284 283 283 283 282 282 282 282 282 282 282 281 281 280 280 279 279 279 278 278 278 277 277 276 276 276 276 276 275 275 275 275 275 274 274
285 285 284 284 284 284 284 284 284 283 282 282 282 282 281 282 282 281 281 280 280 279 279 279 278 278 278 278 277 277 276 276 276 276 276 275 275 275 274 274 274 273
284 284 284 284 284 284 284 284 283 283 282 282 281 281 281 281 281 281 280 280 280 279 279 278 278 278 277 277 277 277 277 276 276 276 275 275 275 275 275 274 273 273
284 284 284 284 284 284 284 284 283 283 281 281 281 281 281 281 280 280 280 280 280 279 279 278 278 278 277 277 277 277 276 276 276 275 275 275 274 274 274 273 273 272
284 284 284 284 284 284 284 283 283 282 281 281 281 281 280 280 280 280 280 280 280 279 279 278 278 277 277 277 276 276 276 275 275 274 274 274 274 273 273 272 272 271
284 284 284 285 284 284 283 283 282 282 281 281 280 280 280 280 280 280 280 280 280 279 279 278 277 277 277 276 276 276 275 274 274 273 273 273 272 272 272 272 271 271
284 284 284 284 283 283 282 282 282 282 281 280 280 280 280 280 280 280 279 279 279 279 278 278 277 277 277 276 275 275 275 274 273 273 272 272 271 271 271 271 270 270
283 283 283 283 283 282 282 282 282 281 280 280 280 280 280 280 279 279 279 278 278 277 277 277 277 277 278 280 279 275 274 273 273 272 272 271 271 270 270 270 270 270
282 282 282 282 283 283 282 281 281 280 280 279 279 279 279 278 279 278 278 278 278 277 276 276 276 276 280 282 281 280 275 273 272 272 272 271 271 270 269 270 270 270
282 282 281 282 282 282 282 281 281 280 279 279 278 278 278 278 278 278 278 278 278 277 276 276 276 279 281 282 282 281 278 273 272 272 271 271 271 270 270 270 270 270
281 281 281 281 281 282 281 281 280 280 279 278 278 278 278 278 278 278 278 278 277 276 276 276 275 280 282 283 282 282 280 275 272 272 271 271 271 271 271 271 271 271
281 281 281 281 281 281 280 280 279 279 279 279 278 278 278 278 277 277 277 277 276 276 276 275 275 279 282 283 283 282 281 277 271 271 271 271 271 271 272 273 273 273
280 280 280 280 280 280 280 279 279 278 278 278 278 278 278 277 277 276 276 276 276 275 275 274 274 280 282 283 283 283 282 277 271 271 271 271 272 273 273 274 274 274
278 279 279 279 279 279 279 279 278 278 278 278 277 277 277 277 276 276 276 275 275 275 274 273 273 280 282 283 284 283 282 273 271 271 271 272 272 273 274 274 275 275
279 279 279 278 278 278 278 278 278 277 277 277 276 276 276 275 275 275 276 275 274 274 273 273 273 279 282 283 284 284 280 271 271 271 271 272 272 273 274 274 275 274
279 279 279 278 277 277 277 277 276 276 276 276 276 275 274 274 275 274 274 274 273 273 273 272 272 277 282 283 284 284 279 271 271 271 271 272 272 274 274 274 275 276
278 278 279 278 277 277 276 276 276 276 276 274 274 275 274 274 273 273 273 272 273 273 275 273 272 276 282 283 284 284 278 272 272 272 272 272 272 273 273 273 273 275
277 277 277 277 277 276 275 275 274 272 272 273 273 273 272 272 271 272 271 271 272 272 272 273 271 273 279 283 284 284 280 273 273 272 271 272 272 272 271 272 272 273
Wind_Speed
12 11 13 12 12 11 11 12 11 13 12 11 12 13 13 11 10 13 13 11 11 11 10 9 9 9 9 9 9 8 8 9 8 8 9 8 7 9 9 8 7 7
14 13 10 9 9 9 11 13 13 14 13 13 12 10 9 10 12 12 13 13 11 12 10 10 10 10 10 10 10 10 9 8 10 6 9 10 8 8 8 8 7 6
13 12 14 15 15 15 13 10 10 11 11 12 10 10 11 11 12 12 12 13 12 12 11 11 10 10 10 10 10 10 10 10 10 8 9 10 8 8 7 7 6 7
15 16 15 15 12 12 11 10 10 10 9 9 13 12 10 9 11 13 13 13 12 12 11 11 12 10 10 10 10 9 9 9 8 8 8 6 7 7 8 7 6 6
16 15 13 13 12 10 9 12 13 13 13 13 9 10 11 11 12 12 12 12 12 11 11 12 11 11 10 9 9 8 8 8 7 8 8 8 7 8 7 8 8 8
12 13 14 14 13 12 12 13 13 12 11 10 13 11 10 12 12 13 14 14 12 12 11 11 11 10 10 10 9 8 8 8 8 9 9 9 8 7 7 8 8 9
16 14 15 13 11 12 13 12 11 12 12 12 8 11 12 13 14 14 14 13 13 13 13 13 12 11 10 10 10 9 8 8 8 9 10 8 8 8 7 7 8 8
15 12 12 10 12 12 13 12 12 12 12 10 13 13 13 14 15 13 13 14 13 13 12 12 12 12 12 11 12 11 10 7 9 10 10 9 9 9 9 8 8 9
11 11 10 12 14 13 14 14 13 12 11 14 13 12 11 13 14 14 14 14 14 13 13 13 13 13 12 12 12 12 12 11 10 12 12 12 12 12 11 9 9 8
12 11 11 13 14 14 16 15 13 12 11 13 12 11 13 12 13 14 14 15 15 15 15 15 14 14 13 13 14 14 13 13 12 12 11 11 12 11 11 11 11 9
14 13 14 14 16 14 17 16 14 13 11 13 12 13 13 13 13 13 14 15 16 17 17 16 16 16 15 14 13 13 13 13 13 12 12 11 11 11 11 11 10 10
15 13 15 17 18 17 17 15 14 13 12 11 13 14 13 14 14 13 15 17 16 16 17 17 16 16 17 16 16 14 13 12 12 11 11 10 10 9 10 9 10 9
14 14 15 16 17 17 13 12 13 13 13 14 13 14 14 14 14 16 15 17 18 16 17 17 17 16 15 15 14 14 14 13 12 11 10 9 9 9 9 9 8 8
13 14 14 16 13 11 11 12 12 12 13 12 11 13 14 16 16 16 15 14 15 15 16 15 15 15 14 14 14 14 13 13 12 12 11 9 9 9 9 8 8 8
12 11 12 11 10 10 12 12 13 13 12 12 13 14 12 14 13 14 13 13 12 13 13 12 14 14 13 14 14 14 12 13 13 12 12 12 10 9 8 8 8 7
10 9 9 10 11 13 14 13 12 12 12 13 13 13 13 12 12 13 14 15 14 13 12 12 12 11 13 21 18 15 14 12 11 11 12 11 12 10 9 9 8 8
9 10 9 11 13 11 10 11 12 11 12 12 12 12 13 12 13 15 15 14 15 15 15 14 12 11 19 23 23 22 15 13 13 12 11 11 11 12 11 10 8 8
9 9 9 12 9 12 11 11 10 10 11 12 12 13 12 12 14 15 14 15 14 15 16 15 13 16 24 25 24 25 20 13 12 12 11 11 11 11 9 9 9 9
7 8 10 10 11 11 9 9 11 11 12 12 15 14 11 13 15 15 16 14 14 16 15 13 12 19 25 26 25 26 25 17 11 11 12 11 11 11 11 9 9 9
7 7 9 9 7 7 8 10 11 14 13 11 9 9 13 14 13 15 14 14 15 15 14 13 12 18 25 25 25 26 25 19 11 12 11 11 12 11 9 10 11 9
5 6 7 6 5 6 7 9 11 9 10 11 11 13 14 15 14 14 13 12 12 12 11 12 11 21 25 26 25 26 25 18 10 10 9 9 9 9 10 9 10 9
5 5 5 4 5 5 8 9 9 10 11 9 8 8 7 7 8 9 11 12 12 12 12 12 10 23 24 25 26 25 26 13 11 11 10 10 9 9 9 9 9 10
4 5 5 4 4 6 8 8 9 9 8 6 8 8 9 10 10 10 10 11 13 12 13 11 11 21 26 26 27 28 20 11 11 10 10 10 10 10 10 10 9 10
5 4 5 5 6 8 9 8 6 4 7 7 10 10 10 10 8 8 8 9 12 13 14 13 12 19 27 27 28 30 19 14 12 12 11 10 10 9 9 8 10 16
5 5 6 7 8 8 7 7 7 8 6 6 7 7 8 7 8 8 8 8 10 11 12 13 11 16 26 27 29 30 20 13 12 12 12 11 11 10 8 8 9 13
5 6 6 6 7 5 5 6 5 5 6 7 6 6 6 7 7 7 9 8 7 9 10 11 12 12 18 29 28 30 26 15 12 13 13 13 11 11 11 9 9 9
Wind_Direction
201 200 202 198 203 199 190 190 193 193 196 193 196 198 195 192 175 187 191 185 189 189 189 186 182 181 180 179 180 176 179 179 172 169 172 168 170 167 171 172 171 168
208 206 207 205 205 202 201 195 193 193 195 195 199 189 189 179 189 185 188 189 187 192 185 184 185 184 181 181 181 178 177 176 177 173 169 173 171 169 173 172 168 162
204 204 205 205 205 204 200 194 192 197 195 197 188 186 188 184 181 186 188 189 189 188 186 184 183 187 184 184 181 183 182 178 179 174 171 175 163 171 171 166 165 175
208 207 208 211 208 203 195 187 194 196 194 187 197 191 178 181 179 183 189 188 188 188 186 183 186 184 184 183 181 188 186 187 179 165 164 158 169 165 168 165 165 168
207 208 210 212 209 199 187 194 197 197 196 199 182 178 182 178 182 184 185 189 189 188 184 186 183 184 180 181 183 183 183 181 169 168 167 170 172 167 170 166 171 174
214 211 211 208 204 196 196 201 202 196 195 191 194 182 182 180 182 184 186 187 188 186 185 184 184 183 179 179 180 187 181 179 176 171 172 173 173 175 169 174 171 174
209 206 212 209 206 204 203 203 199 196 196 197 172 186 183 186 185 187 185 186 185 186 185 185 183 181 180 176 181 184 185 181 173 177 174 175 170 175 176 173 178 175
211 209 208 200 205 206 209 204 202 200 196 181 191 192 184 186 187 184 184 182 183 186 186 187 186 184 179 178 181 181 183 179 179 179 179 177 175 180 178 180 176 173
214 210 200 202 205 207 208 206 205 201 188 191 193 187 187 188 187 184 182 181 182 183 184 186 186 184 182 181 184 183 182 183 184 184 183 180 182 184 180 173 173 177
215 209 200 205 207 209 210 209 204 201 192 196 192 183 186 190 187 184 180 182 183 183 186 186 185 185 184 185 184 182 184 186 185 189 189 189 185 179 176 177 178 171
213 206 205 206 210 210 212 206 203 199 193 195 187 191 189 184 187 183 182 182 186 187 187 186 187 183 182 185 185 184 185 184 187 188 190 189 186 182 179 176 176 180
214 205 209 208 211 212 211 205 201 196 192 194 191 192 189 190 185 184 186 189 191 189 188 186 183 185 186 185 183 181 183 185 186 187 187 184 183 182 180 179 178 174
213 211 212 213 213 213 208 201 200 197 192 195 194 194 189 189 191 189 193 190 192 188 187 185 185 185 185 184 183 181 181 181 181 182 181 179 183 181 179 177 175 172
215 213 215 218 217 211 205 203 198 194 196 193 186 193 194 193 192 193 194 194 193 189 190 184 182 184 184 183 182 181 179 180 177 175 175 176 175 177 176 176 175 173
217 217 219 218 210 206 205 202 198 197 191 187 191 196 195 195 193 191 188 194 194 192 187 186 186 186 183 181 179 180 180 176 174 173 173 172 172 175 176 174 173 175
223 221 217 210 206 207 206 201 198 193 190 193 195 194 193 191 190 191 192 191 187 186 185 187 192 190 187 182 179 176 173 172 171 175 174 173 170 171 176 178 177 174
220 218 208 211 214 209 204 198 197 193 193 194 192 191 191 188 187 191 193 188 187 186 186 190 191 187 183 183 181 175 170 170 171 173 173 172 175 174 176 176 175 175
223 214 207 216 207 209 202 198 192 191 194 193 190 190 192 188 194 195 190 190 190 189 190 190 188 182 183 183 180 177 173 170 170 170 171 175 174 175 174 171 169 171
223 214 216 213 210 206 197 191 192 194 195 191 196 195 183 191 197 190 196 192 189 190 192 189 189 183 183 182 180 178 174 169 173 169 171 174 174 175 174 168 168 171
228 221 222 220 209 199 193 194 194 200 197 195 189 183 194 198 195 196 193 192 192 190 188 186 184 183 183 182 180 178 174 169 169 168 170 172 173 173 172 170 172 168
246 235 235 226 203 198 198 204 205 204 196 195 191 194 195 197 195 195 196 192 190 186 184 184 183 182 184 183 181 178 175 163 162 165 166 169 167 166 166 162 164 165
252 252 248 229 204 198 203 208 205 202 201 195 194 199 200 195 203 198 193 191 187 183 183 184 180 184 184 183 180 177 171 156 164 167 169 170 170 168 164 165 167 166
251 238 235 220 205 203 210 209 203 204 200 184 192 196 193 196 199 196 195 189 185 185 183 181 177 186 186 184 181 177 167 155 163 165 169 170 171 169 167 170 169 169
259 237 231 211 199 209 210 208 203 196 196 184 193 191 194 198 188 192 194 191 189 190 187 180 182 187 187 185 181 182 165 159 165 167 169 169 167 169 169 170 173 173
249 231 222 212 209 209 197 197 196 197 189 177 192 191 196 181 181 187 190 191 195 192 187 183 180 189 189 188 183 183 167 163 164 167 166 170 168 166 163 161 167 174
232 224 220 208 210 197 184 192 171 158 174 182 191 186 180 176 182 183 185 191 185 189 192 186 181 191 195 191 186 186 171 163 168 168 172 168 168 168 161 169 168 176